PAL118 RPLL-CYYZ

Flight info

Callsign PAL118
Flight time N/A
Altitude 33000
Route JOM2R JOM A590 BIXAK/N0494F350 A590 BUBDO Y527 DOMBI Y57 POROT Y809 AVBET OTR9 EMRON DCT 41N160E/N0488F370 45N170E 48N180E 51N170W 54N160W/N0488F390 DCT RWO DCT MDO Q16 YAK NCA10 DEEJA DCT 59N130W DCT YYE J513 YOJ DCT PETMA/N0483F410 DCT KENRU Q919 OMVEG DCT FELTN DCT OTNIK BOXUM7
Aircraft A359/H-SDE2E3GHIJ3J4J5LM1ORWXY/LB1D1

Departure

Time 2026-05-01 09:59
Airport Ninoy Aquino International Airport (RPLL)

Arrival

Time N/A
Airport Toronto Pearson International Airport (CYYZ)
Time Latitude Longitude Altitude Speed Heading
2026-05-01 09:47 14.50429 121.00514 75 ft 0 kts 307°
2026-05-01 09:51 14.50428 121.00515 75 ft 2 kts 307°
2026-05-01 09:51 14.50418 121.00529 64 ft 2 kts 306°
2026-05-01 09:51 14.50409 121.00542 64 ft 2 kts 306°
2026-05-01 09:52 14.50399 121.00556 64 ft 2 kts 305°
2026-05-01 09:52 14.50390 121.00570 64 ft 2 kts 304°
2026-05-01 09:52 14.50381 121.00585 64 ft 2 kts 302°
2026-05-01 09:52 14.50372 121.00600 64 ft 2 kts 297°
2026-05-01 09:53 14.50366 121.00616 64 ft 2 kts 276°
2026-05-01 09:53 14.50368 121.00630 66 ft 1 kts 237°
2026-05-01 09:53 14.50369 121.00632 66 ft 0 kts 237°
2026-05-01 09:55 14.50357 121.00611 65 ft 7 kts 239°
2026-05-01 09:55 14.50327 121.00559 70 ft 9 kts 240°
2026-05-01 09:55 14.50292 121.00493 64 ft 11 kts 240°
2026-05-01 09:56 14.50253 121.00423 69 ft 11 kts 240°
2026-05-01 09:56 14.50214 121.00353 66 ft 11 kts 238°
2026-05-01 09:56 14.50151 121.00335 69 ft 10 kts 176°
2026-05-01 09:56 14.50095 121.00289 65 ft 14 kts 238°
2026-05-01 09:57 14.50044 121.00198 69 ft 15 kts 240°
2026-05-01 09:57 14.49987 121.00095 67 ft 18 kts 240°
2026-05-01 09:57 14.49926 120.99987 67 ft 17 kts 234°
2026-05-01 09:57 14.49833 120.99988 72 ft 16 kts 147°
2026-05-01 09:58 14.49827 121.00083 71 ft 14 kts 60°
2026-05-01 09:58 14.49834 121.00096 69 ft 0 kts 59°
2026-05-01 09:58 14.49903 121.00218 64 ft 50 kts 60°
2026-05-01 09:59 14.50182 121.00721 66 ft 111 kts 59°
2026-05-01 09:59 14.50660 121.01586 64 ft 164 kts 58°
2026-05-01 09:59 14.51265 121.02621 682 ft 163 kts 62°
2026-05-01 09:59 14.51863 121.03674 1197 ft 177 kts 62°
2026-05-01 10:00 14.52493 121.04808 1405 ft 188 kts 62°
2026-05-01 10:00 14.53159 121.06030 1633 ft 201 kts 61°
2026-05-01 10:00 14.53867 121.07320 1861 ft 212 kts 62°
2026-05-01 10:00 14.54614 121.08673 2081 ft 227 kts 60°
2026-05-01 10:01 14.55395 121.10079 2345 ft 239 kts 61°
2026-05-01 10:01 14.55962 121.11098 2562 ft 246 kts 60°
2026-05-01 10:01 14.57060 121.13194 3145 ft 252 kts 68°
2026-05-01 10:01 14.57474 121.14960 3546 ft 256 kts 83°
2026-05-01 10:02 14.57667 121.16786 4056 ft 257 kts 84°
2026-05-01 10:02 14.57894 121.18979 4650 ft 259 kts 84°
2026-05-01 10:02 14.58248 121.22225 5439 ft 264 kts 83°
2026-05-01 10:02 14.58413 121.23708 5777 ft 267 kts 83°
2026-05-01 10:03 14.58956 121.28754 7005 ft 273 kts 84°
2026-05-01 10:03 14.59063 121.29697 7272 ft 272 kts 83°
2026-05-01 10:05 14.59080 121.29840 7313 ft 272 kts 83°
2026-05-01 10:05 14.59365 121.32288 7757 ft 272 kts 83°
2026-05-01 10:05 14.59496 121.33416 8025 ft 273 kts 83°
2026-05-01 10:05 14.59727 121.35427 8617 ft 273 kts 83°
2026-05-01 10:06 14.60379 121.41212 10154 ft 278 kts 83°
2026-05-01 10:06 14.60539 121.42638 10396 ft 285 kts 84°
2026-05-01 10:06 14.61036 121.47097 11072 ft 302 kts 83°
2026-05-01 10:06 14.61318 121.49618 11478 ft 311 kts 83°
2026-05-01 10:07 14.63085 121.65552 13851 ft 342 kts 84°
2026-05-01 10:07 14.63917 121.72178 14897 ft 341 kts 82°
2026-05-01 10:07 14.65016 121.82899 15828 ft 369 kts 84°
2026-05-01 10:07 14.66415 121.95614 17113 ft 387 kts 84°
2026-05-01 10:08 14.70225 122.29522 19583 ft 422 kts 76°
2026-05-01 10:08 14.76357 122.37754 20020 ft 440 kts 39°
2026-05-01 10:08 14.86536 122.45467 20643 ft 452 kts 37°
2026-05-01 10:09 14.96555 122.53182 21418 ft 459 kts 38°
2026-05-01 10:09 15.06845 122.61182 22202 ft 466 kts 38°
2026-05-01 10:09 15.20719 122.71982 23288 ft 475 kts 37°
2026-05-01 10:09 15.34031 122.82438 23029 ft 489 kts 56°